Regional Weather Roundup
Issued by NWS Green Bay, WI

Home | Current Version | Previous Version | Graphics & Text | Print | Product List | Glossary Off
Versions: 1 2 3 4 5 6 7 8 9 10 11 12 13 14 15 16 17 18 19 20 21 22 23 24 25 26 27 28 29 30 31 32 33 34 35 36 37 38 39 40 41 42 43 44 45 46 47 48 49 50

000
ASUS43 KGRB 231459
RWRGRB

NORTH-CENTRAL AND NORTHEAST WISCONSIN REGIONAL WEATHER ROUNDUP
NATIONAL WEATHER SERVICE GREEN BAY WI
900 AM CST SUN NOV 23 2014

WIZ005-009-010>012-018-019-231600-
NORTH CENTRAL WISCONSIN

CITY           SKY/WX    TMP DP  RH WIND       PRES   REMARKS
IRONWOOD       CLOUDY    45  45 100 SW10G23   29.43R
MANITOWISH WTR NOT AVBL
ARBOR VITAE    NOT AVBL
EAGLE RIVER    NOT AVBL
LAND O LAKES   NOT AVBL
RHINELANDER    FOG       43  43 100 S10       29.54S VSB 1/4
PHILLIPS       NOT AVBL
ANTIGO         NOT AVBL
TOMAHAWK       NOT AVBL
MERRILL        NOT AVBL
$$

WIZ013-073-231600-
NORTHEAST WISCONSIN

CITY           SKY/WX    TMP DP  RH WIND       PRES   REMARKS
IRON MOUNTAIN  FOG       41  40  96 SE7       29.56S VSB<1/4
MARINETTE      CLOUDY    45  43  93 S9G16     29.63R
$$

WIZ017-030-035>037-045-231600-
CENTRAL WISCONSIN

CITY           SKY/WX    TMP DP  RH WIND       PRES   REMARKS
MEDFORD        NOT AVBL
WAUSAU         FOG       44  44 100 S13       29.55S VSB 3/4
MOSINEE        DRZL/FOG  45  45 100 S10       29.57S VSB 1/8
MARSHFIELD     FOG       45  45 100 S7        29.55S VSB<1/4
WISC RAPIDS    CLOUDY    48  46  93 S9        29.59S
STEVENS POINT  NOT AVBL
WAUPACA        NOT AVBL
SHAWANO        NOT AVBL
CLINTONVILLE   NOT AVBL
$$

WIZ038-039-048-051-231600-
FOX VALLEY

CITY           SKY/WX    TMP DP  RH WIND       PRES   REMARKS
NWS GREEN BAY  CLOUDY    48  46  93 S10       29.63S FOG
APPLETON       FOG       45  45 100 S10       29.63S VSB 1/4
OSHKOSH        CLOUDY    48  46  93 S15       29.63F FOG
FOND DU LAC    CLOUDY    50  46  86 S13       29.63F
$$

WIZ022-050-052-231600-
EAST CENTRAL WISCONSIN

CITY           SKY/WX    TMP DP  RH WIND       PRES   REMARKS
STURGEON BAY   CLOUDY    45  43  93 S14G21    29.65S VSB 1/2
MANITOWOC      NOT AVBL
SHEBOYGAN      FOG       45  44  97 S7        29.67F VSB 1/2
$$

LMZ563-521-522-541>543-231600-
LAKESHORE

STATION/POSITION TIME  TEMP    WIND        PRES    VSBY  WAVE
                       AIR SEA DIR/SP/G                  HT/PER
                 (UTC) (F)     (DEG/KT/KT) (MB)    (MI)  (FT/S)
SHEBOYGAN LKSHOR 1400   44 39  180/ 14/ 15 1005.7R
KEWAUNEE LKSHORE 1400   40     180/ 11/ 13 1003.9S
NORTHPORT PIER   1400   44     160/  7/ 14 1004.1F
N MID LAKE BUOY  1400   44 42  200/ 21/ 25 1004.6F         5/ 6
SISTER BAY LKSHO 1400          180/ 13/ 17   N/A
CHAMBERS ISLAND  1400   47     150/  6/ 11 1003.7F
MENOMINEE LKSHOR 1400   42     160/ 12/ 17 1004.0F
$$


USA.gov is the U.S. government's official web portal to all federal, state and local government web resources and services.